Location: Saluda
(35.2377°N, 82.3468°W)
Time: 01:24:56
(UTC+00:00)

X-37B - Visible Passes

Search period start: 19 August 2022 00:00
Search period end: 29 August 2022 00:00
Orbit: 328 x 343 km, 45.0° (Epoch: 12 August)

Date Brightness Start Highest point End Pass type
(mag) Time Alt. Az. Time Alt. Az. Time Alt. Az.
20 Aug 1.4 01:05:41 10° SSW 01:08:07 26° SE 01:09:04 21° ESE visible
21 Aug 0.2 01:25:38 10° WSW 01:28:26 88° NW 01:29:43 29° ENE visible
22 Aug 2.1 01:46:24 10° W 01:48:58 31° NNW 01:50:00 23° NNE visible
23 Aug 3.0 02:07:41 10° WNW 02:09:40 17° NNW 02:09:58 17° N visible
24 Aug 2.1 00:51:50 10° W 00:54:24 31° NNW 00:57:00 10° NE visible
24 Aug 3.8 02:29:09 10° NW 02:29:43 12° NNW 02:29:43 12° NNW visible
25 Aug 3.0 01:13:06 10° WNW 01:15:06 17° NNW 01:17:05 10° NNE visible
26 Aug 3.3 01:34:35 10° NW 01:35:55 12° N 01:37:14 10° NNE visible
27 Aug 3.3 01:55:39 10° NNW 01:56:47 12° N 01:57:00 12° N visible
28 Aug 3.2 00:40:02 10° NW 00:41:20 12° N 00:42:39 10° NNE visible
28 Aug 3.6 02:15:58 10° NNW 02:16:23 12° NNW 02:16:23 12° NNW visible
